Location: Colonia Mina de C?rbuni
(46.1667°N, 22.7167°E)
Time: 07:58:50
(UTC+00:00)

Daily predictions for brighter satellites

Satellite Brightness Start Highest point End
(mag) Time Altitude Azimuth Time Altitude Azimuth Time Altitude Azimuth
Cosmos 1763 Rocket 3.8 15:58:15 10° N 16:03:13 44° ENE 16:08:06 10° SE
Gblst 52 Del rocket 4.2 15:58:15 10° SW 16:04:02 80° SSE 16:09:32 10° ENE
Cosmos 1544 Rocket 4.3 16:02:26 10° NNW 16:06:41 57° W 16:10:55 10° S
Landsat 4 4.0 16:03:08 10° S 16:06:45 70° WSW 16:10:23 10° NNW
Cosmos 2227 4.3 16:01:05 10° NNW 16:06:54 90° WSW 16:12:40 10° SSE
Cosmos 1844 4.3 16:02:22 10° NNW 16:07:44 37° NE 16:13:02 10° ESE
Lacrosse 5 rocket 2.1 16:05:06 10° NW 16:08:12 27° NNE 16:11:21 10° E
Cosmos 1461 3.8 16:04:27 10° S 16:08:15 33° ESE 16:12:14 10° NE
Cosmos 1726 Rocket 4.4 16:04:57 10° NNE 16:08:39 27° ENE 16:12:19 10° SE
Cosmos 1892 3.1 16:08:02 10° SSE 16:11:32 40° E 16:15:05 10° NNE
Cosmos 2278 4.0 16:06:14 10° SSW 16:11:53 74° WNW 16:17:37 10° NNE
Cosmos 2219 Rocket 3.8 16:09:41 10° ESE 16:12:12 13° E 16:14:43 10° ENE
Cosmos 2360 Rocket 3.0 16:07:29 10° SSE 16:12:18 30° ESE 16:17:10 10° NE
Cosmos 540 Rocket 4.0 16:09:49 10° N 16:14:36 36° ENE 16:19:19 10° SE
Cosmos 1825 3.0 16:15:06 10° SSE 16:18:19 29° E 16:21:33 10° NNE
Cosmos 1655 Rocket 4.2 16:12:09 10° N 16:18:26 84° W 16:24:39 10° S
Cosmos 2251 Rocket 4.5 16:13:48 10° SW 16:19:00 50° WNW 16:24:15 10° NNE
ADEOS 3.8 16:14:04 10° S 16:19:16 78° WSW 16:24:32 10° NNW
Cosmos 2278 Rocket 4.1 16:20:02 10° NNE 16:21:35 11° NNE 16:23:07 10° NE
Cosmos 2333 Rocket 3.2 16:19:24 10° SSE 16:23:53 25° ESE 16:28:23 10° NE
USA 281 4.3 16:17:45 10° NNE 16:23:55 45° NW 16:30:05 10° SW
Cosmos 2322 Rocket 2.3 16:19:32 10° S 16:24:59 55° ESE 16:30:28 10° NE
CZ-4C R/B 3.6 16:23:08 10° NNE 16:26:44 40° E 16:30:09 10° S
CZ-4 R/B 2.9 16:24:58 10° ESE 16:27:43 18° ENE 16:30:27 10° NNE
Okean O Rocket 3.0 16:25:23 10° ESE 16:28:24 18° ENE 16:31:27 10° NNE
BlueWalker 3 3.3 16:34:02 10° WNW 16:37:26 28° N 16:40:08 14° NE
RESURS DK-1 2.7 16:33:34 10° NNW 16:37:32 44° ENE 16:41:28 10° SE
COSMOS 2428 4.3 16:36:36 10° SE 16:39:14 13° E 16:39:37 13° E
In-Cosmos 22 Rocket 4.4 16:34:17 10° S 16:39:58 58° E 16:45:41 10° NNE
Cosmos 1340 3.5 16:36:49 10° NNE 16:40:00 27° ENE 16:43:08 10° SE
SL-16 R/B 2.3 16:34:32 10° SSW 16:40:13 82° WNW 16:45:56 10° NNE
Cosmos 1553 Rocket 4.2 16:35:49 10° SSE 16:41:31 44° E 16:47:19 10° NNE
SKYMED 2 3.5 16:39:22 10° NNE 16:43:44 82° ESE 16:48:05 10° SSW
Cosmos 676 Rocket 4.0 16:38:40 10° SSW 16:43:57 79° ESE 16:49:13 10° NNE
SL-4 R/B 2.6 16:42:17 10° WNW 16:45:31 34° N 16:47:35 19° ENE
Cosmos 1606 4.4 16:44:23 10° NNE 16:46:06 16° NE 16:46:06 16° NE
ISS -1.3 16:45:24 10° W 16:48:09 23° SW 16:50:51 10° SSE
BREEZE M DEB (TANK) 3.9 16:43:51 10° WNW 16:48:47 41° SW 16:51:15 10° SE
Cosmos 2058 Rocket 3.5 16:44:40 10° N 16:48:49 39° ENE 16:52:59 10° SE
YAOGAN 1 2.8 16:47:12 10° SE 16:51:20 47° ENE 16:55:29 10° N
Cosmos 1980 Rocket 4.3 16:46:59 10° W 16:51:26 23° NW 16:55:56 10° N
CZ-4B R/B 4.3 16:52:29 10° S 16:56:19 40° W 16:59:59 10° NNW
IRIDIUM 106 4.4 16:52:56 10° N 16:58:05 55° E 17:03:11 10° SSE
Meteor 2-12 Rocket 4.3 16:52:31 10° N 16:58:38 78° E 17:04:40 10° SSE
Genesis I 3.2 16:58:03 10° SSW 17:01:58 64° ESE 17:04:16 23° NE
PAYLOAD B 4.1 16:57:31 10° SSE 17:03:02 80° ENE 17:08:33 10° NNW
Cosmos 1633 2.2 17:00:34 10° S 17:03:55 84° E 17:07:16 10° N
Cosmos 44 Rocket 3.6 17:06:53 10° S 17:11:16 41° ESE 17:12:59 30° ENE
Meteor 1-27 4.2 17:07:19 10° N 17:13:08 80° E 17:18:50 10° SSE
NOAA 15 4.5 17:10:13 10° SSE 17:15:27 80° ENE 17:20:45 10° NNW
S3M 4.2 17:11:07 10° SSE 17:17:14 51° E 17:23:22 10° NNE
Cosmos 1869 3.2 17:16:13 10° N 17:20:08 84° W 17:24:04 10° S
ATLAS CENTAUR R/B 4.1 17:18:35 10° WNW 17:21:12 15° NNW 17:23:45 10° N
Cosmos 1892 Rocket 4.0 17:22:50 10° SSW 17:27:12 63° W 17:31:35 10° N
PSLV R/B 4.3 17:26:44 10° S 17:30:19 54° W 17:33:59 10° NNW
COSMO-SKYMED 1 4.3 17:27:41 10° N 17:31:35 33° WNW 17:35:28 10° SW
Cosmos 1844 Rocket 3.6 17:27:23 10° NW 17:32:44 48° WSW 17:38:02 10° S
DMSP B5D1-3 4.4 17:28:11 10° NNE 17:33:19 80° ESE 17:38:27 10° SSW
Cosmos 2315 Rocket 4.2 17:32:44 10° SSE 17:38:41 45° E 17:44:42 10° NNE
SJ-6B 4.4 17:43:06 23° N 17:43:06 23° N 17:44:47 10° N
CZ-4B R/B 3.4 17:36:08 10° S 17:41:28 71° WSW 17:46:56 10° NNW
Lacrosse 5 2.7 17:37:49 10° W 17:42:43 44° NNW 17:44:52 29° NNE
Cosmos 1461 4.4 17:43:05 10° WSW 17:47:04 35° NW 17:49:26 21° N
Lacrosse 5 rocket 1.4 17:43:42 10° WNW 17:47:15 57° SW 17:47:26 56° SSW
Spot 1 3.8 17:47:39 67° NNE 17:48:11 88° ESE 17:52:15 10° SSW
Cosmos 1814 Rocket 3.9 17:43:42 10° NNW 17:49:03 66° ENE 17:50:00 55° ESE
ATLAS 2AS CENTAUR R/B 4.3 17:43:42 10° NW 17:49:41 33° WSW 17:55:25 10° S
Cosmos 1850 Rocket 4.2 17:48:36 10° SSW 17:53:46 68° WNW 17:57:27 19° NNE
Cosmos 2219 Rocket 2.0 17:49:39 10° SSW 17:55:15 87° ESE 17:57:33 38° NNE
Cosmos 2360 Rocket 3.1 17:50:40 10° SW 17:56:05 46° WNW 18:01:12 12° NNE
Cosmos 841 Rocket 4.3 17:53:33 10° NNW 17:58:40 51° WSW 18:03:43 10° S
USA 81 3.9 17:54:10 10° S 17:59:27 88° E 18:04:45 10° N
Cosmos 1626 Rocket 3.7 17:56:43 10° S 18:00:23 64° SSW 18:00:23 64° SSW
CZ-4 R/B 2.3 17:58:18 10° S 18:02:16 47° W 18:06:13 10° NNW
Cosmos 1741 Rocket 4.4 17:57:01 10° SSW 18:02:17 62° WNW 18:05:58 20° N
Cosmos 1745 Rocket 4.3 17:57:01 10° NNW 18:03:13 67° W 18:09:18 10° S
Okean O Rocket 2.3 18:00:04 10° S 18:04:20 53° W 18:08:41 10° NNW
Cosmos 2278 Rocket 2.9 18:01:49 10° NNW 18:05:53 37° NNE 18:05:53 37° NNE
Cosmos 2333 Rocket 2.8 18:02:12 10° SW 18:07:45 56° WNW 18:11:22 22° NNE
Cosmos 2322 Rocket 4.0 18:04:34 10° WSW 18:09:21 28° NW 18:14:10 10° N
Cosmos 1932 4.4 18:05:57 10° SSW 18:12:17 68° ESE 18:12:30 68° ESE
Atlas Centaur 2 4.3 18:08:22 10° SW 18:14:50 26° S 18:16:26 24° SSE
Okean 1-7 Rocket 4.2 18:11:09 10° SSW 18:14:53 54° WSW 18:14:53 54° WSW
BlueWalker 3 3.9 18:13:00 10° NW 18:14:55 25° NW 18:14:55 25° NW
ATLAS 5 CENTAUR R/B 4.2 18:16:21 10° N 18:16:59 11° N 18:16:59 11° N
Cosmos 1709 Rocket 4.0 18:15:28 10° NNW 18:21:37 75° W 18:26:30 16° S
COSMOS 2428 2.8 18:16:54 10° SSW 18:21:43 66° SSW 18:21:43 66° SSW
CSL-04 Debris 4.3 18:23:08 63° SSW 18:23:51 73° WSW 18:29:16 10° NNW
SL-4 R/B 4.1 18:21:32 10° WNW 18:22:55 22° WNW 18:22:55 22° WNW
CSL-04 Rocket 3.8 18:29:40 69° WNW 18:29:40 69° WNW 18:34:40 10° NNW
BREEZE-M DEB (TANK) 3.6 18:31:51 10° WSW 18:40:19 58° W 18:40:19 58° W
Cosmos 1943 Rocket 4.1 18:37:36 10° NNW 18:39:19 18° N 18:39:19 18° N
Cosmos 2322 4.5 18:42:59 10° SW 18:48:31 48° WNW 18:48:47 48° NW
Lacrosse 5 4.4 19:22:34 10° WNW 19:24:05 16° NW 19:24:05 16° NW
Cosmos 2219 Rocket 4.5 19:35:59 10° W 19:39:20 19° NW 19:39:20 19° NW
